Puyallup, WA
on Wednesday, November 7, 2012

Wednesday
Previous Day Next Day
Daily Summary
 ActualAverage (KSEA)Record (KSEA)
Temperature
Mean Temperature °F 47°F  
Max Temperature 53°F 53°F 62°F (2008)
Min Temperature 32°F 42°F 31°F (1952)
Degree Days
Heating Degree Days 22 18  
Month to date heating degree days 119  
Since 1 July heating degree days 716  
Cooling Degree Days 0 0  
Month to date cooling degree days 0  
Year to date cooling degree days 189  
Moisture
Dew Point 39°F   
Average Humidity 83    
Maximum Humidity 100    
Minimum Humidity 51    
Precipitation
Precipitation 0.00 in 0.20 in 1.93 in (1995)
Month to date precipitation 1.39  
Year to date precipitation 26.96  
Snow
Snow 0.00 in in T in (1945)
Month to date snowfall  
Since 1 July snowfall  
Snow Depth in   
Wind
Wind Speed 1 mph   
Max Wind Speed 8 mph   
Max Gust Speed mph   
Visibility 10 miles   
Events     

Key: T is trace of precipitation, MM is missing value
Source: NWS Daily Summary
Time(PST)TemperatureDew PointHumidity Pressure Visibility Wind DirectionWind SpeedGust SpeedPrecipitationEvents Conditions
12:15 AM 48.2°F 46.4°F 93% 30.08 in 10.0 miles Calm Calm - N/A   Clear
12:55 AM 46.4°F 46.4°F 100% 30.08 in 10.0 miles Calm Calm - N/A   Clear
1:15 AM 46.4°F 46.4°F 100% 30.08 in 10.0 miles Calm Calm - N/A   Clear
1:35 AM 46.4°F 46.4°F 100% 30.09 in 10.0 miles Calm Calm - N/A   Partly Cloudy
1:55 AM 46.4°F 46.4°F 100% 30.09 in 10.0 miles SW 4.6 mph - N/A   Scattered Clouds
2:15 AM 46.4°F 44.6°F 93% 30.09 in 10.0 miles Calm Calm - N/A   Scattered Clouds
2:35 AM 46.4°F 44.6°F 93% 30.10 in 10.0 miles Calm Calm - N/A   Scattered Clouds
2:55 AM 46.4°F 44.6°F 93% 30.11 in 10.0 miles Calm Calm - N/A   Scattered Clouds
5:15 AM 44.6°F 42.8°F 93% 30.12 in 10.0 miles Calm Calm - N/A   Clear
5:35 AM 44.6°F 41.0°F 87% 30.13 in 10.0 miles Calm Calm - N/A   Clear
5:55 AM 44.6°F 41.0°F 87% 30.13 in 10.0 miles Calm Calm - N/A   Clear
6:15 AM 44.6°F 41.0°F 87% 30.13 in 10.0 miles Calm Calm - N/A   Clear
6:35 AM 44.6°F 41.0°F 87% 30.13 in 10.0 miles Calm Calm - N/A   Clear
6:55 AM 44.6°F 41.0°F 87% 30.13 in 10.0 miles Calm Calm - N/A   Clear
7:15 AM 44.6°F 41.0°F 87% 30.14 in 10.0 miles Calm Calm - N/A   Clear
7:35 AM 44.6°F 41.0°F 87% 30.14 in 10.0 miles Calm Calm - N/A   Clear
7:55 AM 44.6°F 41.0°F 87% 30.15 in 10.0 miles Calm Calm - N/A   Clear
8:15 AM 46.4°F 41.0°F 81% 30.14 in 10.0 miles Calm Calm - N/A   Clear
8:35 AM 48.2°F 41.0°F 76% 30.14 in 10.0 miles Calm Calm - N/A   Clear
8:55 AM 48.2°F 41.0°F 76% 30.14 in 10.0 miles Calm Calm - N/A   Clear
9:15 AM 48.2°F 41.0°F 76% 30.14 in 10.0 miles Calm Calm - N/A   Clear
9:35 AM 48.2°F 41.0°F 76% 30.14 in 10.0 miles SW 4.6 mph - N/A   Clear
9:55 AM 50.0°F 41.0°F 71% 30.14 in 10.0 miles SW 5.8 mph - N/A   Clear
10:15 AM 50.0°F 41.0°F 71% 30.14 in 10.0 miles SW 6.9 mph - N/A   Clear
10:35 AM 50.0°F 41.0°F 71% 30.15 in 10.0 miles SW 6.9 mph - N/A   Clear
10:55 AM 50.0°F 41.0°F 71% 30.14 in 10.0 miles SW 4.6 mph - N/A   Scattered Clouds
11:15 AM 50.0°F 41.0°F 71% 30.14 in 10.0 miles SW 3.5 mph - N/A   Mostly Cloudy
11:35 AM 51.8°F 39.2°F 62% 30.14 in 10.0 miles Calm Calm - N/A   Scattered Clouds
11:55 AM 50.0°F 39.2°F 66% 30.13 in 10.0 miles West 3.5 mph - N/A   Partly Cloudy
12:15 PM 51.8°F 39.2°F 62% 30.13 in 10.0 miles Calm Calm - N/A   Mostly Cloudy
12:35 PM 51.8°F 37.4°F 58% 30.12 in 10.0 miles West 8.1 mph - N/A   Scattered Clouds
12:55 PM 50.0°F 37.4°F 62% 30.12 in 10.0 miles WSW 6.9 mph - N/A   Scattered Clouds
1:15 PM 53.6°F 35.6°F 51% 30.12 in 10.0 miles West 5.8 mph - N/A   Partly Cloudy
1:35 PM 53.6°F 37.4°F 54% 30.11 in 10.0 miles SW 4.6 mph - N/A   Clear
1:55 PM 50.0°F 37.4°F 62% 30.11 in 10.0 miles Calm Calm - N/A   Clear
2:15 PM 51.8°F 37.4°F 58% 30.11 in 10.0 miles WSW 3.5 mph - N/A   Clear
2:35 PM 53.6°F 37.4°F 54% 30.10 in 10.0 miles Calm Calm - N/A   Scattered Clouds
2:55 PM 53.6°F 37.4°F 54% 30.09 in 10.0 miles Calm Calm - N/A   Partly Cloudy
3:15 PM 51.8°F 37.4°F 58% 30.09 in 10.0 miles Calm Calm - N/A   Partly Cloudy
3:35 PM 50.0°F 37.4°F 62% 30.08 in 10.0 miles Calm Calm - N/A   Clear
3:55 PM 50.0°F 37.4°F 62% 30.08 in 10.0 miles Calm Calm - N/A   Partly Cloudy
4:15 PM 50.0°F 37.4°F 62% 30.08 in 10.0 miles Calm Calm - N/A   Clear
4:35 PM 48.2°F 37.4°F 66% 30.07 in 10.0 miles Calm Calm - N/A   Clear
4:55 PM 44.6°F 39.2°F 81% 30.07 in 10.0 miles Calm Calm - N/A   Clear
5:15 PM 42.8°F 39.2°F 87% 30.06 in 10.0 miles Calm Calm - N/A   Partly Cloudy
5:35 PM 42.8°F 39.2°F 87% 30.06 in 10.0 miles Calm Calm - N/A   Partly Cloudy
5:55 PM 41.0°F 39.2°F 93% 30.06 in 10.0 miles Calm Calm - N/A   Clear
6:15 PM 39.2°F 37.4°F 93% 30.05 in 10.0 miles Calm Calm - N/A   Clear
6:35 PM 39.2°F 37.4°F 93% 30.05 in 10.0 miles Calm Calm - N/A   Clear
6:55 PM 37.4°F 35.6°F 93% 30.04 in 10.0 miles Calm Calm - N/A   Clear
7:15 PM 37.4°F 37.4°F 100% 30.04 in 10.0 miles Calm Calm - N/A   Clear
7:35 PM 35.6°F 35.6°F 100% 30.04 in 10.0 miles Calm Calm - N/A   Clear
7:55 PM 35.6°F 35.6°F 100% 30.03 in 10.0 miles Calm Calm - N/A   Clear
8:15 PM 35.6°F 35.6°F 100% 30.03 in 10.0 miles Calm Calm - N/A   Partly Cloudy
8:35 PM 35.6°F 35.6°F 100% 30.02 in 10.0 miles Calm Calm - N/A   Clear
8:55 PM 37.4°F 37.4°F 100% 30.01 in 10.0 miles Calm Calm - N/A   Clear
9:15 PM 37.4°F 37.4°F 100% 30.01 in 10.0 miles Calm Calm - N/A   Partly Cloudy
9:35 PM 37.4°F 37.4°F 100% 30.00 in 10.0 miles Calm Calm - N/A   Scattered Clouds
9:55 PM 37.4°F 37.4°F 100% 29.99 in 10.0 miles Calm Calm - N/A   Partly Cloudy
10:15 PM 35.6°F 35.6°F 100% 29.99 in 10.0 miles Calm Calm - N/A   Clear
10:35 PM 35.6°F 35.6°F 100% 29.98 in 10.0 miles Calm Calm - N/A   Clear
10:55 PM 32.0°F 32.0°F 100% 29.96 in 10.0 miles Calm Calm - N/A   Clear
11:15 PM 32.0°F 32.0°F 100% 29.95 in 10.0 miles Calm Calm - N/A   Clear
11:35 PM 32.0°F 32.0°F 100% 29.95 in 10.0 miles Calm Calm - N/A   Clear
11:55 PM 32.0°F 32.0°F 100% 29.94 in 7.0 miles Calm Calm - N/A   Clear
Moon Phase
Nov. 07 Nov. 13 Nov. 20 Nov. 28 Dec. 06
Sunrise:07:01 AM (PST) Moon Rise:No Moon Rise/
Sunset:04:43 PM (PST) Moon Set:01:19 PM (PST)11/7

Copyright © 2014 The Weather Underground, Inc.